Location: Chuathbaluk
(61.5726°N, 159.2454°W)
Time: 14:52:27
(UTC+00:00)

N. Korean satellite - Pass Details

Date: 02 November 2020
Orbit: 453 x 503 km, 97.2° (Epoch: 03 December)

Event Time Altitude Azimuth Distance (km) Brightness Sun altitude
Rises 15:15:52 0° 24° (NNE) 2,488 10.6 -20.9°
Reaches altitude 10° 15:18:27 10° 45° (NE) 1,606 9.9 -20.6°
Maximum altitude 15:20:50 18° 89° (E) 1,213 9.6 -20.3°
Drops below altitude 10° 15:23:12 10° 133° (SE) 1,597 9.7 -20.0°
Sets 15:25:45 0° 154° (SSE) 2,469 10.4 -19.7°
